Overview Statistics Trail Chart Weather Telemetry Raw packets
 

This is the latest recevied weather packets stored in our database for station/object KC2GYU. If no packets are shown the sender has not sent any weather packets the latest 10 day(s).

<< 36 37 38 39 40 41 42 >>
Time Temp. Humidity Pressure Rain* Wind** Luminosity Snow
1777841456 16.67° C 38% 1013.5 hPa 0 mm - 490 W/m² -
1777841152 16.11° C 38% 1013.4 hPa 0 mm - 490 W/m² -
1777840849 16.11° C 36% 1013.7 hPa 0 mm - 521 W/m² -
1777840546 16.11° C 37% 1013.3 hPa 0 mm - 543 W/m² -
1777840243 16.11° C 36% 1013.6 hPa 0 mm - 526 W/m² -
1777839941 16.11° C 37% 1013.7 hPa 0 mm - 545 W/m² -
1777839634 16.11° C 39% 1013.5 hPa 0 mm - 584 W/m² -
1777839332 15.56° C 38% 1013.6 hPa 0 mm - 594 W/m² -
1777839029 15.56° C 36% 1013.8 hPa 0 mm - 599 W/m² -
1777838725 15.56° C 38% 1013.6 hPa 0 mm - 585 W/m² -
1777838422 15.56° C 37% 1013.6 hPa 0 mm - 613 W/m² -
1777838119 15.56° C 37% 1013.7 hPa 0 mm - 643 W/m² -
1777837816 15.56° C 41% 1013.6 hPa 0 mm - 619 W/m² -
1777837527 15.56° C 41% 1013.5 hPa 0 mm - 659 W/m² -
1777837212 15° C 39% 1013.7 hPa 0 mm - 649 W/m² -
1777836909 15.56° C 38% 1013.7 hPa 0 mm - 650 W/m² -
1777836604 15.56° C 40% 1013.6 hPa 0 mm - 645 W/m² -
1777836301 15.56° C 38% 1013.8 hPa 0 mm - 636 W/m² -
1777835996 15° C 40% 1013.8 hPa 0 mm - 642 W/m² -
1777835694 15.56° C 43% 1013.6 hPa 0 mm - 638 W/m² -
1777835390 15.56° C 41% 1014 hPa 0 mm - 626 W/m² -
1777835088 15.56° C 41% 1014 hPa 0 mm - 634 W/m² -
1777834785 15° C 41% 1014.1 hPa 0 mm - 636 W/m² -
1777834481 15.56° C 40% 1014.1 hPa 0 mm - 680 W/m² -
1777834180 15° C 42% 1014.2 hPa 0 mm - 704 W/m² -

* Rain latest hour (hover to see other rain measurements)
** Current wind speed in m/s (hover to see current wind gust speed)